Regional Weather Roundup
Issued by NWS Spokane, WA

Home | Current Version | Previous Version | Text Only | Print | Product List | Glossary On
Versions: 1 2 3 4 5 6 7 8 9 10 11 12 13 14 15 16 17 18 19 20 21 22 23 24 25 26 27 28 29 30 31 32 33 34 35 36 37 38 39 40 41 42 43 44 45 46 47 48 49 50
000
NZUS01 KOTX 250425
RWROTX

Eastern Washington/Northern Idaho Roundup
National Weather Service, Spokane WA
900 PM PDT WED AUG 24 2016

Note: "fair" indicated few or no clouds below 12,000 feet with no
significant weather and/or obstructions to visibility.

...Northeast Washington and Northern Idaho Panhandle...

CITY           SKY/WX    TMP DP  RH WIND       PRES   REMARKS
Spokane Intl   PTCLDY    73  36  25 NE7       30.19R
Spokane Downto CLEAR     72  38  29 NE5       30.18R
Coeur d Alene  CLEAR     66  39  37 NE6       30.18S
Deer Park      CLEAR     62  37  39 N6        30.20R
Sandpoint      CLEAR     64  39  39 NE7       30.21S
Bonners Ferry    N/A     63  41  45 CALM      30.23S

...Southeast Washington and southern Idaho Panhandle...

CITY           SKY/WX    TMP DP  RH WIND       PRES   REMARKS
Walla Walla    CLEAR     73  37  27 E10       30.09R
Pullman/Moscow CLEAR     64  39  39 CALM      30.20R
Lewiston       CLEAR     76  41  28 NE6       30.11R
Lowell           N/A     61  49  64 N3        30.14R
Grangeville    FAIR      61  45  55 CALM      30.19R

...Columbia Basin...

CITY           SKY/WX    TMP DP  RH WIND       PRES   REMARKS
Ephrata        CLEAR     76  40  27 NW5       30.12S
Moses Lake     CLEAR     76  40  27 NE7       30.13R
Pasco          CLEAR     67  53  61 N7        30.07R
Richland       CLEAR     74  46  37 NW7       30.08R
Hermiston      CLEAR     75  45  34 CALM      30.07R
Pendleton      CLEAR     66  39  37 NW7       30.11R

...East Slopes Cascades...

CITY           SKY/WX    TMP DP  RH WIND       PRES   REMARKS
The Dalles     CLEAR     76  38  25 W5        30.07R
Yakima         CLEAR     67  45  45 W6        30.13R
Ellensburg     CLEAR     63  45  51 N7        30.16R
Stampede Pass  CLEAR     60  44  55 SW5       30.30R
Wenatchee      CLEAR     75  38  26 N6        30.13R
Omak           CLEAR     75  33  21 N12       30.16R
Sunnyside        N/A     63  50  62 N3        30.11R

...Southern British Columbia...

CITY           SKY/WX    TMP DP  RH WIND       PRES   REMARKS
Penticton      PTCLDY    68  43  40 N5        30.17R
Castlegar      CLEAR     64  46  52 VRB2      30.18R
Cranbrook      PTCLDY    59  41  51 SW3       30.27R
Osoyoos          N/A     77  43  29 NW3         N/A
Creston          N/A     66  43  42 N3          N/A

...Western Montana...

CITY           SKY/WX    TMP DP  RH WIND       PRES   REMARKS
Kalispell      CLEAR     56  36  47 N13       30.26R
Libby            N/A     61  37  41 SE3       30.25R
Missoula       MOCLDY    54  46  74 NW6       30.28R

...Neighboring Cities...

CITY           SKY/WX    TMP DP  RH WIND       PRES   REMARKS
Seattle        PTCLDY    78  51  38 NE12      30.15R
Portland       CLEAR     83  47  28 N9        30.05R
Boise          CLEAR     71  32  23 CALM      30.06R
Great Falls    CLOUDY    54  40  59 E5        30.34S
Calgary        PTCLDY    61  39  44 CALM      30.30



USA.gov is the U.S. government's official web portal to all federal, state and local government web resources and services.